Union Aéronautique de la Côte d'Azur

Union Aéronautique de la Côte d'Azur
UACA
Approuvé A.T.O. EASA – N°FR.ATO.0108

UNION des aéroclubs
Cannes “Ailes d’Azur”, Nice “Côte d’Azur”, Grasse “St Exupery”, ACCA “Francis Séverac”

Un cache-pitot se trouve à bord de chaque avion. Pensez à le mettre en place à la fin de chaque vol !

Avant de quitter l'avion, vérifiez que vous n'emportez pas la checklist

Un vol ne s'entreprend qu'avec un pare-brise parfaitement propre, il en va de votre sécurité, et de celle des autres

Après chaque vol, merci de mettre en place les pares-soleil!


Météo à Cannes:
METAR
LFMD 170730Z AUTO VRB02KT 9999 BKN092 BKN110 11/06 Q1014 NOSIG =
AMD LFMD 170452Z 1704/1803 34010KT 9999 BKN070 PROB30 TEMPO 1704/1713 8000 -RA BKN060 BECMG 1711/1713 09010KT 9999 SCT070 BECMG 1719/1721 34010KT

TAF
AMD LFMD 170452Z 1704/1803 34010KT 9999 BKN070 PROB30 TEMPO 1704/1713 8000 -RA BKN060 BECMG 1711/1713 09010KT 9999 SCT070 BECMG 1719/1721 34010KT =

SR / SS: 04:43 / 18:20 UTC (LFMD 2021-04-17)